Location: Spring Creek
(38.2870°N, 100.2160°W)
Time: 02:03:02
(UTC+00:00)

Cosmos 2297 Rocket - Pass Details

Date: 08 May 2021
Orbit: 838 x 845 km, 71.0° (Epoch: 24 June)

Event Time Altitude Azimuth Distance (km) Brightness Sun altitude
Rises 08:33:44 0° 347° (NNW) 3,409 6.0 -28.2°
Reaches altitude 10° 08:36:30 10° 358° (N) 2,471 5.3 -27.9°
Maximum altitude 08:41:25 30° 58° (ENE) 1,485 4.0 -27.4°
Drops below altitude 10° 08:46:19 10° 119° (ESE) 2,460 4.7 -26.8°
Sets 08:49:04 0° 130° (SE) 3,392 5.3 -26.5°
